Regional Weather Roundup
Issued by NWS Grand Forks, ND

Home | Current Version | Previous Version | Text Only | Print | Product List | Glossary On
Versions: 1 2 3 4 5 6 7 8 9 10 11 12 13 14 15 16 17 18 19 20 21 22 23 24 25 26 27 28 29 30 31 32 33 34 35 36 37 38 39 40 41 42 43 44 45 46 47 48 49 50
000
ASUS43 KFGF 310610
RWRFGF
PRAIRIE TO PINES  WEATHER ROUNDUP
NATIONAL WEATHER SERVICE EASTERN NORTH DAKOTA/GRAND FORKS ND
100 AM CDT SUN AUG 31 2014

 **SATELLITE DATA USED TO AUGMENT SKY COVER AT AUTOMATED STATIONS**
 *****  WEATHER ACROSS EASTERN NORTH DAKOTA  *****

CITY           SKY/WX    TMP DP  RH WIND       PRES   REMARKS
GRAND FORKS    MOCLDY    59  57  94 S7        29.77F
6HR MIN TEMP:  56; 6HR MAX TEMP:  73;

GRAND FRKS AFB FAIR      59  59 100 S7        29.77F
GRAND FRKS NWS   N/A     59 N/A N/A S7          N/A
DEVILS LAKE    FAIR      61  54  77 SE14      29.72F
6HR MIN TEMP:  61; 6HR MAX TEMP:  70;

FARGO          FAIR      61  58  90 SE9       29.80S
WAHPETON ARPT  FAIR      55  54  94 SE7       29.81F
$$

 ***** WEATHER ACROSS CENTRAL AND WESTERN NORTH DAKOTA  *****

CITY           SKY/WX    TMP DP  RH WIND       PRES   REMARKS
BISMARCK       LGT RAIN  61  60  97 E9        29.71F
6HR MIN TEMP:  61; 6HR MAX TEMP:  74; 6HR PCP:  0.33;

MINOT          NOT AVBL
JAMESTOWN      FAIR      60  58  92 SE14      29.71F
6HR MIN TEMP:  59; 6HR MAX TEMP:  69;

MINOT AFB      RAIN      61  61 100 CALM      29.67F FOG
GARRISON         N/A     62  60  93 SE9G20    29.65F
WILLISTON      CLOUDY    60  58  92 N3        29.69S
6HR MIN TEMP:  60; 6HR MAX TEMP:  64; 6HR PCP:  0.08;

DICKINSON      CLOUDY    61  59  93 SW6       29.67F
6HR MIN TEMP:  61; 6HR MAX TEMP:  71; 6HR PCP:  0.13;

HETTINGER      CLOUDY    60  58  92 SE5       29.70F
6HR MIN TEMP:  59; 6HR MAX TEMP:  75; 6HR PCP:  0.24;

$$

 *****  OTHER AIRPORT OBSERVATIONS IN OUR AREA  *****

CITY           SKY/WX    TMP DP  RH WIND       PRES   REMARKS
WALHALLA       FAIR      55  55 100 SE6       29.77R
GRAFTON AIRPOR FAIR      55  55 100 S7        29.77S
VALLEY CITY AR FAIR      59  59 100 S12       29.76F
CANDO          MOCLDY    61  57  88 SE8       29.73F
CAVALIER APRT  FAIR      59  57  94 S8        29.77S
GWINNER        CLEAR     61  61 100 SE12      29.76F
ROLLA          CLOUDY    57  57 100 S9        29.75F
 ***** THE ABOVE OBSERVATIONS ARE NON NWS ARE NOT QUALITY
       CONTROLLED AND MAY MIS-REPORT RAIN FOR SNOW...
$$

  *****  WEATHER ACROSS NORTHERN MINNESOTA  *****

CITY           SKY/WX    TMP DP  RH WIND       PRES   REMARKS
FLAG ISLAND    FAIR      64  61  88 S16       29.82R
WARROAD        CLOUDY    57  54  88 S3        29.83R
ROSEAU         FAIR      59  54  82 SE6       29.82R
HALLOCK        FAIR      55  54  94 SE6       29.78F
THF RVR FALLS  CLOUDY    63  57  82 SE8       29.81S
6HR MIN TEMP:  57; 6HR MAX TEMP:  68;

BAUDETTE       CLOUDY    58  56  93 SE5       29.84R
6HR MIN TEMP:  56; 6HR MAX TEMP:  67;

WASKISH        CLOUDY    61  57  88 CALM      29.85R
CROOKSTON      FAIR      63  61  94 S9        29.80F
$$
  *****  WEATHER ACROSS CENTRAL AND WEST MINNESOTA  *****

CITY           SKY/WX    TMP DP  RH WIND       PRES   REMARKS
FOSSTON        FAIR      57  55  94 SE6       29.83S
BEMIDJI        CLOUDY    62  60  93 S6        29.85R
PARK RAPIDS    CLOUDY    62  61  96 S5        29.86R
6HR MIN TEMP:  61; 6HR MAX TEMP:  62; 6HR PCP:  0.01;

ELBOW LAKE     FAIR      58  58  98 SE7       29.84F
6HR MIN TEMP:  56; 6HR MAX TEMP:  64;

WADENA         CLOUDY    61  61 100 SE7       29.85R
DETROIT LAKES  CLOUDY    63  61  94 SE9       29.84F
MOORHEAD       FAIR      61  61 100 S5        29.81F
FERGUS FALLS   FAIR      61  57  88 S7        29.83F
MORRIS MN      FAIR      59  57  94 SE6       29.84S FOG
STAPLES        MOCLDY    61  61 100 S5        29.88R
$$
  *****  WEATHER ELSEWHERE ACROSS MINNESOTA  *****

CITY           SKY/WX    TMP DP  RH WIND       PRES   REMARKS
DULUTH         CLOUDY    60  57  89 SE8       29.90F
6HR MIN TEMP:  60; 6HR MAX TEMP:  62;

INTRNTL FALLS  CLOUDY    55  54  96 SE5       29.86S
6HR MIN TEMP:  45; 6HR MAX TEMP:  69;

ELY            CLOUDY    57  55  94 S5        29.90F
CLOQUET        CLOUDY    59  57  94 E3        29.90S
WHEATON        FAIR      55  54  94 SE6       29.83F FOG
BRAINERD       CLOUDY    64  61  90 SE8       29.87R
6HR MIN TEMP:  62; 6HR MAX TEMP:  67;

HIBBING        CLOUDY    61  57  87 SE9       29.89F
6HR MIN TEMP:  61; 6HR MAX TEMP:  66;

ALEXANDRIA     FAIR      60  59  96 S6        29.87R
6HR MIN TEMP:  60; 6HR MAX TEMP:  69;

SAINT CLOUD    CLOUDY    67  64  90 SE6       29.88R
6HR MIN TEMP:  66; 6HR MAX TEMP:  73;

MINNEAPOLIS    FAIR      65  62  90 SE8       29.88S
6HR MIN TEMP:  64; 6HR MAX TEMP:  73; 6HR PCP: TRACE;

$$

  *****  WEATHER ACROSS SOUTH DAKOTA  *****

CITY           SKY/WX    TMP DP  RH WIND       PRES   REMARKS
SIOUX FALLS    FAIR      65  59  81 SE9       29.82F
6HR MIN TEMP:  65; 6HR MAX TEMP:  70;

BROOKINGS      NOT AVBL
WATERTOWN      FAIR      61  58  90 SE8       29.79F
6HR MIN TEMP:  59; 6HR MAX TEMP:  68;

HURON          MOCLDY    65  60  84 SE13G21   29.71F
6HR MIN TEMP:  64; 6HR MAX TEMP:  71;

SISSETON         N/A     59  59 100 S7        29.78F
ABERDEEN       MOCLDY    61  60  97 SE10      29.70F
6HR MIN TEMP:  60; 6HR MAX TEMP:  69;

MITCHELL       CLEAR     66  62  87 SE13      29.74F
PIERRE         CLOUDY    70  65  84 S15       29.62F
6HR MIN TEMP:  68; 6HR MAX TEMP:  77;

MOBRIDGE       LGT RAIN  65  63  93 SE14G24   29.63F
RAPID CITY     LGT RAIN  62  57  83 N9        29.79R
6HR MIN TEMP:  62; 6HR MAX TEMP:  79; 6HR PCP:  0.02;

$$

  *****  SOME WEATHER IN NEARBY STATES *****

CITY           SKY/WX    TMP DP  RH WIND       PRES   REMARKS
GLASGOW MT     PTCLDY    57  55  93 E10       29.70S
6HR MIN TEMP:  57; 6HR MAX TEMP:  67;

GREAT FALLS MT MOCLDY    55  41  59 SW7       29.80S
6HR MIN TEMP:  54; 6HR MAX TEMP:  74;

CHEYENNE WY    MOCLDY    58  46  64 W9        30.01S
6HR MIN TEMP:  55; 6HR MAX TEMP:  70; 6HR PCP: TRACE;

SCOTTSBLUFF NE MOCLDY    62  54  74 N7        29.87R
6HR MIN TEMP:  62; 6HR MAX TEMP:  85; 6HR PCP: TRACE;

OMAHA NE       FAIR      71  64  78 S8        29.85F
6HR MIN TEMP:  70; 6HR MAX TEMP:  80;

DES MOINES IA  FAIR      69  64  84 CALM      29.88S
6HR MIN TEMP:  69; 6HR MAX TEMP:  79;

DAVENPORT IA   FAIR      63  62  97 CALM      29.92S FOG
6HR MIN TEMP:  63; 6HR MAX TEMP:  77;

CHICAGO IL     MOCLDY    71  64  78 S6        29.91F
6HR MIN TEMP:  70; 6HR MAX TEMP:  80;

EAU CLAIRE WI  FAIR      57  57 100 E3        29.90S FOG
6HR MIN TEMP:  57; 6HR MAX TEMP:  66;

LA CROSSE WI   FAIR      66  62  87 NE3       29.89F
6HR MIN TEMP:  65; 6HR MAX TEMP:  76;

$$

  *****  SOME NATIONAL WEATHER *****

CITY           SKY/WX    TMP DP  RH WIND       PRES   REMARKS
LA GUARDIA NY  MOCLDY    74  64  71 SW9       30.13F
6HR MIN TEMP:  73; 6HR MAX TEMP:  75;

RALEIGH NC     MOCLDY    76  71  85 S5        30.18S
6HR MIN TEMP:  76; 6HR MAX TEMP:  82;

ATLANTA GA     MOCLDY    74  70  87 NE5       30.16S
6HR MIN TEMP:  74; 6HR MAX TEMP:  80; 6HR PCP:  0.48;

NEW ORLEANS LA MOCLDY    76  73  91 CALM      30.03F
6HR MIN TEMP:  76; 6HR MAX TEMP:  80; 6HR PCP:  0.18;

OKLAHOMA CITY  FAIR      75  67  76 S8        29.92F
6HR MIN TEMP:  75; 6HR MAX TEMP:  92;

ALBUQUERQUE NM PTCLDY    77  40  26 S15       30.05R
6HR MIN TEMP:  74; 6HR MAX TEMP:  89;

SALT LAKE CITY CLOUDY    70  47  43 SE8       29.80F
6HR MIN TEMP:  69; 6HR MAX TEMP:  84;

LOS ANGELES CA PTCLDY    71  65  81 NW6       29.77S
6HR MIN TEMP:  71; 6HR MAX TEMP:  76;

BOISE ID       MOCLDY    57  51  80 W6        29.94R
6HR MIN TEMP:  57; 6HR MAX TEMP:  80; 6HR PCP:  0.01;




USA.gov is the U.S. government's official web portal to all federal, state and local government web resources and services.